• In Uzbekistan
  • List of Countries
  • For 7 days
  • Water Temperature
  • Satellite Maps
  • Weather Map
  • Weather Widgets
  • user-avatar
    Login

    Hourly Weather Mochudi

    Today, 22 October, Monday

    Time Temperature Precipitation Wind Pressure Humidity
    00:00 +20°C° 0 mm 6 mps 686 mmHg 43%
    01:00 +19°C° 0 mm 6 mps 686 mmHg 41%
    02:00 +17°C° 0 mm 7 mps 686 mmHg 39%
    03:00 +16°C° 0 mm 7 mps 686 mmHg 40%
    04:00 +16°C° 0 mm 6 mps 686 mmHg 42%
    05:00 +15°C° 0 mm 6 mps 686 mmHg 43%
    06:00 +15°C° 0 mm 6 mps 687 mmHg 44%
    07:00 +16°C° 0 mm 6 mps 687 mmHg 45%
    08:00 +16°C° 0 mm 6 mps 688 mmHg 45%
    09:00 +19°C° 0 mm 6 mps 688 mmHg 40%
    10:00 +20°C° 0 mm 6 mps 688 mmHg 35%
    11:00 +22°C° 0 mm 6 mps 688 mmHg 29%
    12:00 +24°C° 0 mm 6 mps 688 mmHg 26%
    13:00 +26°C° 0 mm 6 mps 687 mmHg 22%
    14:00 +27°C° 0 mm 6 mps 687 mmHg 19%
    15:00 +27°C° 0 mm 5 mps 686 mmHg 18%
    16:00 +27°C° 0 mm 5 mps 686 mmHg 17%
    17:00 +27°C° 0 mm 5 mps 686 mmHg 16%
    18:00 +26°C° 0 mm 5 mps 686 mmHg 17%
    19:00 +25°C° 0 mm 4 mps 686 mmHg 18%
    20:00 +23°C° 0 mm 4 mps 686 mmHg 19%
    21:00 +22°C° 0 mm 4 mps 686 mmHg 21%
    22:00 +22°C° 0 mm 5 mps 687 mmHg 23%
    23:00 +21°C° 0 mm 5 mps 687 mmHg 26%

    Tomorrow, 23 October, Tuesday

    Time Temperature Precipitation Wind Pressure Humidity
    00:00 +20°C° 0 mm 5 mps 687 mmHg 30%
    01:00 +19°C° 0 mm 5 mps 687 mmHg 34%
    02:00 +19°C° 0 mm 5 mps 687 mmHg 38%
    03:00 +17°C° 0 mm 5 mps 687 mmHg 41%
    04:00 +17°C° 0 mm 5 mps 687 mmHg 45%
    05:00 +16°C° 0 mm 5 mps 687 mmHg 49%
    06:00 +16°C° 0 mm 6 mps 687 mmHg 48%
    07:00 +17°C° 0 mm 6 mps 687 mmHg 47%
    08:00 +17°C° 0 mm 7 mps 688 mmHg 47%
    09:00 +20°C° 0 mm 6 mps 688 mmHg 40%
    10:00 +22°C° 0 mm 6 mps 688 mmHg 33%
    11:00 +24°C° 0 mm 6 mps 688 mmHg 27%
    12:00 +26°C° 0 mm 6 mps 688 mmHg 23%
    13:00 +27°C° 0 mm 5 mps 687 mmHg 20%
    14:00 +29°C° 0 mm 5 mps 687 mmHg 16%
    15:00 +29°C° 0 mm 5 mps 686 mmHg 16%
    16:00 +29°C° 0 mm 4 mps 686 mmHg 15%
    17:00 +28°C° 0 mm 4 mps 685 mmHg 15%
    18:00 +27°C° 0 mm 3 mps 686 mmHg 16%
    19:00 +26°C° 0 mm 3 mps 686 mmHg 18%
    20:00 +25°C° 0 mm 2 mps 686 mmHg 19%
    21:00 +24°C° 0 mm 2 mps 686 mmHg 22%
    22:00 +23°C° 0 mm 2 mps 686 mmHg 24%
    23:00 +21°C° 0 mm 3 mps 686 mmHg 26%

    Day after tomorrow, 24 October, Wednesday

    Time Temperature Precipitation Wind Pressure Humidity
    00:00 +20°C° 0 mm 3 mps 686 mmHg 29%
    01:00 +20°C° 0 mm 3 mps 686 mmHg 32%
    02:00 +19°C° 0 mm 3 mps 685 mmHg 35%
    03:00 +18°C° 0 mm 3 mps 685 mmHg 39%
    04:00 +18°C° 0 mm 3 mps 685 mmHg 42%
    05:00 +17°C° 0 mm 3 mps 685 mmHg 45%
    06:00 +18°C° 0 mm 4 mps 686 mmHg 43%
    07:00 +19°C° 0 mm 4 mps 686 mmHg 41%
    08:00 +20°C° 0 mm 4 mps 687 mmHg 39%
    09:00 +22°C° 0 mm 4 mps 687 mmHg 33%
    10:00 +25°C° 0 mm 4 mps 687 mmHg 28%
    11:00 +27°C° 0 mm 4 mps 687 mmHg 22%
    12:00 +29°C° 0 mm 4 mps 687 mmHg 19%
    13:00 +30°C° 0 mm 4 mps 686 mmHg 16%
    14:00 +32°C° 0 mm 4 mps 685 mmHg 13%
    15:00 +32°C° 0 mm 4 mps 685 mmHg 12%
    16:00 +31°C° 0 mm 3 mps 684 mmHg 12%
    17:00 +31°C° 0 mm 3 mps 683 mmHg 11%
    18:00 +29°C° 0 mm 2 mps 684 mmHg 12%
    19:00 +28°C° 0 mm 2 mps 684 mmHg 14%
    20:00 +26°C° 0 mm 2 mps 684 mmHg 15%
    21:00 +25°C° 0 mm 2 mps 684 mmHg 17%
    22:00 +25°C° 0 mm 2 mps 684 mmHg 18%
    23:00 +24°C° 0 mm 2 mps 684 mmHg 20%

    25 October, Thursday

    Time Temperature Precipitation Wind Pressure Humidity
    00:00 +23°C° 0 mm 2 mps 684 mmHg 22%
    01:00 +21°C° 0 mm 2 mps 684 mmHg 25%
    02:00 +20°C° 0 mm 2 mps 683 mmHg 27%
    03:00 +20°C° 0 mm 2 mps 683 mmHg 30%
    04:00 +19°C° 0 mm 2 mps 683 mmHg 32%
    05:00 +18°C° 0 mm 2 mps 683 mmHg 34%
    06:00 +20°C° 0 mm 2 mps 684 mmHg 32%
    07:00 +23°C° 0 mm 2 mps 685 mmHg 29%
    08:00 +24°C° 0 mm 3 mps 685 mmHg 27%
    09:00 +27°C° 0 mm 3 mps 685 mmHg 23%
    10:00 +29°C° 0 mm 2 mps 686 mmHg 19%
    11:00 +31°C° 0 mm 2 mps 686 mmHg 15%
    12:00 +33°C° 0 mm 3 mps 685 mmHg 14%
    13:00 +34°C° 0 mm 3 mps 684 mmHg 12%
    14:00 +35°C° 0 mm 3 mps 683 mmHg 10%
    15:00 +35°C° 0 mm 3 mps 683 mmHg 10%
    16:00 +35°C° 0 mm 3 mps 683 mmHg 9%
    17:00 +35°C° 0 mm 2 mps 683 mmHg 9%
    18:00 +34°C° 0 mm 2 mps 683 mmHg 10%
    19:00 +31°C° 0 mm 1 mps 683 mmHg 11%
    20:00 +29°C° 0 mm 1 mps 683 mmHg 12%
    21:00 +28°C° 0 mm 1 mps 683 mmHg 13%
    22:00 +28°C° 0 mm 1 mps 683 mmHg 13%
    23:00 +27°C° 0 mm 2 mps 683 mmHg 14%

    26 October, Friday

    Time Temperature Precipitation Wind Pressure Humidity
    00:00 +26°C° 0 mm 2 mps 683 mmHg 15%
    01:00 +25°C° 0 mm 2 mps 682 mmHg 16%
    02:00 +24°C° 0 mm 2 mps 682 mmHg 17%
    03:00 +23°C° 0 mm 2 mps 682 mmHg 18%
    04:00 +23°C° 0 mm 2 mps 682 mmHg 20%
    05:00 +22°C° 0 mm 1 mps 683 mmHg 22%
    06:00 +24°C° 0 mm 2 mps 683 mmHg 21%
    07:00 +25°C° 0 mm 2 mps 684 mmHg 21%
    08:00 +27°C° 0 mm 3 mps 685 mmHg 20%
    09:00 +29°C° 0 mm 3 mps 685 mmHg 18%
    10:00 +32°C° 0 mm 2 mps 685 mmHg 15%
    11:00 +35°C° 0 mm 2 mps 685 mmHg 12%
    12:00 +36°C° 0 mm 2 mps 685 mmHg 11%
    13:00 +37°C° 0 mm 2 mps 684 mmHg 10%
    14:00 +38°C° 0 mm 2 mps 684 mmHg 8%
    15:00 +38°C° 0 mm 3 mps 683 mmHg 8%
    16:00 +38°C° 0 mm 3 mps 683 mmHg 8%
    17:00 +38°C° 0 mm 3 mps 683 mmHg 8%
    18:00 +36°C° 0 mm 2 mps 683 mmHg 9%
    19:00 +33°C° 0 mm 1 mps 683 mmHg 10%
    20:00 +31°C° 0 mm 1 mps 683 mmHg 11%
    21:00 +31°C° 0 mm 1 mps 683 mmHg 12%
    22:00 +30°C° 0 mm 2 mps 683 mmHg 12%
    23:00 +29°C° 0 mm 2 mps 683 mmHg 13%

    27 October, Saturday

    Time Temperature Precipitation Wind Pressure Humidity
    00:00 +28°C° 0 mm 3 mps 683 mmHg 15%
    01:00 +27°C° 0 mm 3 mps 683 mmHg 16%
    02:00 +26°C° 0 mm 4 mps 683 mmHg 18%
    03:00 +26°C° 0 mm 3 mps 683 mmHg 21%
    04:00 +25°C° 0 mm 3 mps 683 mmHg 24%
    05:00 +24°C° 0 mm 2 mps 683 mmHg 26%
    06:00 +25°C° 0 mm 3 mps 684 mmHg 25%
    07:00 +27°C° 0 mm 4 mps 685 mmHg 25%
    08:00 +28°C° 0 mm 5 mps 686 mmHg 24%
    09:00 +30°C° 0 mm 5 mps 686 mmHg 21%
    10:00 +33°C° 0 mm 5 mps 686 mmHg 18%
    11:00 +35°C° 0 mm 5 mps 686 mmHg 16%
    12:00 +36°C° 0 mm 4 mps 685 mmHg 14%
    13:00 +37°C° 0 mm 3 mps 685 mmHg 13%
    14:00 +38°C° 0 mm 3 mps 684 mmHg 11%
    15:00 +38°C° 0 mm 3 mps 683 mmHg 11%
    16:00 +38°C° 0 mm 3 mps 683 mmHg 11%
    17:00 +38°C° 0 mm 2 mps 683 mmHg 11%
    18:00 +36°C° 0 mm 2 mps 683 mmHg 13%
    19:00 +34°C° 0 mm 2 mps 683 mmHg 14%
    20:00 +32°C° 0 mm 2 mps 683 mmHg 16%
    21:00 +31°C° 0 mm 3 mps 683 mmHg 18%
    22:00 +30°C° 0 mm 4 mps 683 mmHg 21%
    23:00 +29°C° 0 mm 5 mps 683 mmHg 23%

    28 October, Sunday

    Time Temperature Precipitation Wind Pressure Humidity
    00:00 +28°C° 0 mm 5 mps 683 mmHg 26%
    01:00 +27°C° 0 mm 5 mps 682 mmHg 29%
    02:00 +27°C° 0 mm 5 mps 682 mmHg 31%
    03:00 +26°C° 0 mm 5 mps 682 mmHg 34%
    04:00 +25°C° 0 mm 5 mps 683 mmHg 36%
    05:00 +23°C° 0 mm 4 mps 683 mmHg 38%
    06:00 +23°C° 0 mm 5 mps 684 mmHg 39%
    07:00 +25°C° 0 mm 5 mps 684 mmHg 39%
    08:00 +26°C° 0 mm 6 mps 685 mmHg 40%
    09:00 +27°C° 0 mm 6 mps 685 mmHg 37%
    10:00 +29°C° 0 mm 5 mps 685 mmHg 33%
    11:00 +32°C° 0 mm 5 mps 685 mmHg 30%
    12:00 +33°C° 0 mm 4 mps 684 mmHg 27%
    13:00 +35°C° 0 mm 4 mps 683 mmHg 23%
    14:00 +36°C° 0 mm 3 mps 683 mmHg 20%
    15:00 +36°C° 0 mm 3 mps 682 mmHg 19%
    16:00 +36°C° 0 mm 2 mps 682 mmHg 18%
    17:00 +37°C° 0 mm 2 mps 681 mmHg 17%
    18:00 +35°C° 0 mm 3 mps 682 mmHg 19%
    19:00 +34°C° 0 mm 3 mps 682 mmHg 21%
    20:00 +32°C° 0 mm 4 mps 682 mmHg 24%
    21:00 +30°C° 0 mm 5 mps 682 mmHg 27%
    22:00 +29°C° 0 mm 5 mps 682 mmHg 30%
    23:00 +28°C° 0 mm 6 mps 682 mmHg 34%
    Show more